* Astronomy

Members Login
Username 
 
Password 
    Remember Me  
Post Info TOPIC: PSLV Debris


L

Posts: 131433
Date:
PSLV Debris
Permalink  
 


PSLV Debris (launched 2001)

Size; 2cm and 9cm

PSLV Debris
1 27068U 01049L   13258.94707908  .17642961  25855-5  20206-3 0  7021
2 27068 097.7304 166.4880 0021342 167.8369 193.1157 16.48636592650176

 

PSLV Debris 2
1 27107U 01049BB  13258.69636635  .11695962  28508-5  22204-2 0  6282
2 27107 097.7620 157.5171 0004549 207.7058 179.4835 16.32034045381117

Re-entry on the 16th September, 2013

Use TLEs with Satellite Tracking Programs



__________________
Page 1 of 1  sorted by
 
Quick Reply

Please log in to post quick replies.



Create your own FREE Forum
Report Abuse
Powered by ActiveBoard